Vorticity
4 3 3 3 3 4 4 5 5 6 6 6 7 9 9 10 8 12 9 5 8 8 7 13 11 8 9 9 7 9 7 9 9 10 5 12 11 15 10 11 14 13 5 8 7
4 4 4 4 5 5 6 6 6 6 6 7 8 7 7 9 12 10 10 2 3 5 5 7 12 10 10 9 7 7 7 15 -0 5 2 5 5 5 8 13 11 10 14 5 7
4 4 4 5 6 7 7 7 7 7 6 7 13 12 13 7 14 24 11 1 2 1 1 2 6 11 7 13 6 -0 4 9 15 3 -1 5 4 6 6 9 4 9 3 5 2
5 6 6 8 8 8 2 21 6 2 6 5 8 10 16 13 12 -4 6 8 5 3 2 5 5 9 10 8 12 9 10 7 1 8 6 -1 -1 2 1 3 5 -0 -1 4 1
7 8 6 4 10 5 -3 -8 12 7 -2 3 8 7 5 20 9 7 8 9 8 8 6 9 7 13 8 4 10 9 6 9 5 5 5 5 6 0 9 5 4 4 3 5 5
5 4 3 0 -2 6 4 10 2 5 11 -7 10 1 1 0 13 4 7 6 5 8 5 7 9 6 13 10 12 6 9 7 9 9 4 3 6 2 9 6 8 9 11 11 9
3 3 2 1 1 2 5 8 2 5 5 5 0 6 -7 15 19 5 2 11 5 3 6 0 3 7 4 12 22 9 6 7 13 8 11 14 13 11 15 3 5 2 3 3 2
-2 -1 2 3 4 4 4 5 5 9 11 8 8 7 -1 13 14 17 17 12 9 3 -3 7 4 2 5 9 10 12 11 13 6 16 11 11 0 13 13 13 16 14 8 5 3
-0 3 3 4 6 6 8 10 10 13 16 20 16 14 24 18 15 4 -3 7 5 0 -4 -0 8 5 5 17 6 10 3 2 3 8 1 11 0 11 8 10 10 12 10 11 10
5 5 6 7 10 10 11 11 10 7 7 10 31 15 8 19 -6 2 9 1 -15 -2 2 -1 11 13 10 12 -1 12 -1 3 5 8 13 0 4 5 8 4 4 0 12 12 6
6 9 10 10 7 7 8 9 8 15 11 12 7 6 19 7 21 15 6 4 13 17 9 14 23 -1 -3 -3 -0 4 6 4 4 -1 -0 16 15 13 11 7 7 8 8 10 21
10 7 8 7 7 9 12 9 7 6 7 18 4 17 11 7 6 17 6 9 21 -1 9 9 7 15 11 22 18 11 6 7 13 22 16 12 3 5 11 6 12 11 8 3 6
9 7 8 12 15 11 4 4 11 9 10 31 22 33 40 37 37 24 11 21 15 10 17 13 -14 -1 -0 3 9 5 2 6 8 12 7 12 11 30 31 26 13 12 11 9 3
9 9 9 8 6 9 8 12 9 9 31 21 16 1 5 8 6 7 13 14 10 7 2 20 14 13 12 12 15 9 25 9 9 14 8 17 -5 -12 -11 6 8 8 -10 14 10
9 10 11 10 11 9 11 11 12 6 19 21 13 20 9 -1 3 1 0 6 -2 3 12 6 6 10 8 5 6 17 3 14 15 11 16 23 4 8 20 9 10 -1 10 9 16
9 10 9 9 10 9 9 10 12 24 12 7 10 7 3 8 11 8 3 7 6 9 9 5 -3 4 12 9 14 4 14 -2 5 17 36 30 13 29 36 28 25 21 24 22 20
9 9 9 9 8 9 9 12 12 4 12 17 5 8 3 8 8 6 9 17 8 13 5 -5 22 4 10 21 21 5 -3 11 19 5 -11 5 21 -7 3 -3 7 16 9 7 9
8 8 7 8 9 9 11 16 6 16 4 -0 3 5 1 8 17 5 5 10 13 6 9 19 16 3 -10 10 7 9 22 -28 13 5 -3 -13 6 28 12 13 40 -4 -12 12 -1
8 8 8 8 10 11 14 8 3 28 19 -0 -1 6 -3 15 11 15 15 19 9 18 10 11 12 8 -16 -7 -2 11 0 19 28 20 30 4 -2 -11 -3 29 0 20 9 1 21
7 9 8 8 10 12 14 -9 0 14 -5 20 12 8 10 4 3 -3 6 4 3 -11 17 9 17 26 8 4 18 8 0 9 8 26 6 17 3 -2 -5 8 16 22 18 20 1
8 10 8 12 11 11 -1 1 4 15 6 -6 3 -8 9 2 -0 8 5 -4 -2 11 0 2 10 -3 3 29 25 19 -3 7 16 10 -2 15 14 7 34 27 17 10 24 1 -5
13 9 12 7 13 17 10 -0 2 6 11 -7 -4 -9 -3 -4 2 15 19 1 -12 -5 3 -2 4 1 13 9 14 11 24 16 8 5 3 15 17 1 -22 -22 -15 -6 7 7 -3
2 15 5 14 8 20 11 1 10 8 3 5 5 18 12 18 12 27 25 31 19 -7 9 6 2 9 16 26 15 17 -10 -2 1 13 9 -12 -22 -3 32 -5 -8 -27 -12 -4 3
8 -9 18 18 2 -5 12 23 19 12 17 20 13 14 5 -3 1 -4 -3 4 15 -7 9 8 25 -5 -9 -18 -16 -4 1 1 -7 4 10 5 3 -7 -5 -9 2 20 6 21 19
14 6 -2 -2 19 6 2 -4 33 15 19 21 20 20 20 13 15 21 25 16 17 34 5 19 14 11 16 8 11 7 12 7 2 16 -2 -4 -1 2 3 4 17 13 19 14 20
-14 46 5 -6 33 24 10 8 2 3 -7 13 12 3 5 2 1 -10 -0 16 22 21 14 -3 7 9 6 1 -3 5 6 9 6 2 2 6 10 16 15 16 18 7 16 22 15
17 18 39 32 3 -0 1 -0 1 5 12 16 8 9 9 9 1 10 8 6 -1 -1 4 12 12 8 6 6 14 36 18 31 22 17 19 16 15 13 14 -7 10 16 20 15 9
Height
3174 3174 3173 3173 3172 3171 3170 3169 3167 3164 3161 3160 3158 3158 3155 3154 3153 3152 3151 3151 3149 3147 3145 3144 3143 3142 3141 3141 3142 3143 3146 3143 3143 3141 3142 3139 3139 3139 3140 3141 3142 3143 3143 3144 3144
3171 3171 3170 3170 3169 3169 3168 3165 3164 3161 3157 3157 3156 3154 3152 3151 3151 3149 3149 3148 3147 3145 3144 3143 3143 3141 3140 3139 3139 3141 3142 3141 3140 3139 3139 3139 3138 3138 3139 3138 3139 3140 3141 3141 3141
3168 3167 3167 3166 3166 3165 3164 3162 3161 3158 3155 3154 3152 3150 3149 3148 3148 3146 3146 3145 3145 3144 3143 3142 3141 3140 3139 3136 3137 3138 3140 3139 3138 3137 3137 3138 3138 3137 3137 3138 3138 3138 3138 3138 3139
3164 3164 3163 3163 3162 3161 3160 3159 3158 3156 3152 3151 3149 3147 3146 3147 3149 3144 3143 3142 3141 3141 3141 3141 3140 3139 3137 3134 3133 3136 3134 3135 3136 3134 3135 3135 3134 3135 3135 3137 3136 3136 3135 3136 3136
3159 3160 3159 3158 3158 3158 3156 3155 3154 3153 3150 3147 3146 3145 3145 3145 3142 3140 3139 3139 3138 3138 3138 3139 3137 3136 3136 3133 3131 3130 3131 3131 3132 3132 3131 3131 3131 3131 3131 3131 3132 3132 3131 3132 3132
3155 3155 3155 3155 3155 3153 3152 3151 3150 3149 3148 3145 3144 3143 3142 3143 3140 3137 3136 3135 3134 3134 3134 3135 3134 3132 3131 3131 3130 3127 3127 3127 3127 3128 3127 3128 3129 3127 3129 3128 3127 3127 3127 3126 3126
3150 3150 3150 3150 3149 3148 3147 3146 3146 3144 3144 3143 3141 3139 3139 3139 3135 3134 3133 3132 3131 3131 3130 3130 3131 3130 3128 3127 3126 3125 3124 3124 3124 3123 3122 3123 3123 3121 3124 3123 3122 3122 3122 3122 3122
3147 3147 3146 3146 3146 3145 3142 3141 3140 3139 3138 3138 3136 3135 3134 3132 3132 3130 3129 3127 3126 3127 3128 3126 3126 3126 3125 3124 3123 3123 3121 3122 3119 3118 3118 3120 3119 3117 3117 3117 3117 3117 3117 3117 3117
3140 3141 3142 3142 3142 3140 3138 3136 3135 3133 3133 3132 3131 3130 3130 3127 3127 3127 3127 3126 3124 3123 3124 3124 3123 3122 3122 3123 3123 3119 3119 3118 3119 3116 3116 3116 3116 3113 3113 3113 3114 3112 3111 3112 3112
3133 3133 3134 3135 3134 3134 3132 3130 3128 3128 3129 3128 3125 3128 3125 3123 3123 3124 3122 3122 3122 3120 3120 3121 3120 3119 3120 3121 3120 3117 3117 3116 3116 3115 3112 3112 3110 3110 3109 3108 3109 3108 3107 3107 3108
3128 3127 3128 3128 3128 3127 3127 3125 3125 3121 3123 3124 3123 3119 3117 3119 3118 3117 3117 3115 3116 3116 3116 3115 3117 3116 3117 3117 3116 3115 3114 3113 3113 3112 3107 3106 3105 3105 3105 3101 3102 3102 3102 3102 3102
3120 3121 3122 3122 3123 3122 3122 3120 3119 3116 3111 3116 3114 3111 3109 3109 3111 3108 3110 3110 3110 3110 3111 3113 3110 3112 3110 3108 3109 3110 3109 3108 3107 3106 3103 3101 3097 3097 3097 3093 3094 3096 3096 3096 3095
3113 3114 3116 3117 3117 3117 3116 3115 3113 3109 3105 3106 3105 3102 3103 3103 3102 3100 3103 3104 3104 3104 3106 3109 3110 3105 3105 3106 3105 3106 3105 3103 3103 3102 3099 3095 3086 3085 3086 3087 3086 3086 3088 3089 3089
3108 3110 3111 3112 3113 3112 3110 3110 3109 3106 3102 3101 3100 3100 3102 3101 3101 3099 3098 3101 3101 3101 3101 3103 3101 3100 3100 3102 3102 3100 3099 3098 3096 3096 3092 3092 3080 3083 3081 3081 3079 3080 3081 3081 3081
3100 3103 3104 3104 3106 3108 3107 3106 3106 3105 3105 3099 3099 3096 3098 3100 3101 3099 3098 3096 3097 3098 3100 3101 3099 3098 3098 3099 3098 3096 3093 3093 3091 3089 3087 3086 3084 3074 3075 3076 3077 3074 3074 3075 3075
3094 3098 3099 3099 3101 3103 3104 3103 3104 3106 3099 3094 3096 3093 3095 3097 3096 3098 3096 3096 3095 3094 3094 3094 3094 3094 3094 3093 3093 3093 3092 3090 3087 3086 3080 3076 3077 3069 3068 3069 3071 3069 3069 3070 3071
3089 3091 3093 3095 3097 3098 3101 3103 3105 3099 3094 3093 3096 3091 3093 3094 3093 3096 3095 3094 3094 3092 3091 3091 3090 3088 3088 3089 3089 3090 3091 3085 3080 3076 3072 3073 3072 3067 3067 3067 3067 3066 3068 3067 3068
3082 3084 3086 3089 3092 3092 3096 3100 3099 3090 3089 3089 3094 3090 3092 3092 3091 3092 3093 3094 3090 3088 3087 3086 3087 3085 3084 3087 3088 3086 3088 3085 3073 3068 3067 3069 3066 3062 3063 3063 3063 3064 3063 3063 3064
3076 3076 3079 3083 3086 3089 3093 3092 3090 3087 3087 3087 3091 3089 3090 3090 3090 3091 3091 3091 3089 3086 3087 3084 3083 3081 3082 3082 3084 3082 3082 3080 3077 3073 3070 3065 3062 3062 3059 3059 3060 3060 3060 3059 3059
3068 3071 3073 3076 3080 3084 3085 3084 3082 3082 3082 3083 3086 3086 3087 3088 3088 3088 3086 3086 3085 3085 3083 3083 3078 3079 3078 3077 3078 3079 3078 3076 3072 3067 3057 3054 3054 3054 3056 3056 3055 3055 3056 3055 3056
3061 3065 3067 3069 3072 3077 3075 3078 3075 3075 3077 3082 3082 3082 3082 3085 3084 3085 3083 3083 3082 3082 3082 3081 3078 3075 3074 3074 3072 3073 3070 3070 3068 3066 3060 3052 3050 3048 3050 3051 3051 3051 3051 3052 3052
3055 3058 3059 3063 3068 3067 3068 3072 3068 3069 3073 3075 3075 3077 3078 3078 3079 3079 3078 3079 3078 3076 3077 3078 3074 3068 3069 3069 3068 3068 3066 3066 3063 3061 3062 3057 3051 3049 3050 3049 3049 3049 3050 3050 3048
3047 3049 3053 3054 3057 3061 3061 3063 3063 3063 3066 3069 3070 3071 3072 3073 3074 3072 3070 3070 3071 3072 3072 3073 3069 3065 3062 3064 3063 3063 3063 3063 3062 3059 3054 3054 3047 3046 3046 3044 3044 3045 3045 3044 3041
3043 3044 3043 3046 3048 3056 3058 3055 3055 3057 3059 3062 3063 3065 3068 3067 3068 3065 3065 3065 3066 3066 3066 3065 3063 3061 3060 3059 3060 3060 3059 3058 3058 3055 3051 3045 3043 3039 3042 3041 3039 3037 3035 3033 3031
3033 3034 3037 3036 3041 3047 3051 3050 3051 3053 3054 3055 3057 3060 3061 3062 3062 3058 3058 3058 3057 3059 3061 3060 3057 3056 3055 3054 3054 3054 3051 3051 3050 3047 3044 3038 3040 3023 3037 3033 3030 3026 3024 3023 3021
3027 3027 3031 3035 3037 3042 3042 3045 3049 3048 3050 3054 3053 3054 3057 3056 3057 3055 3053 3052 3050 3053 3054 3054 3051 3051 3049 3047 3047 3044 3043 3041 3040 3039 3036 3033 3026 3028 3028 3026 3021 3018 3016 3014 3013
3021 3023 3025 3030 3033 3036 3038 3039 3042 3044 3047 3048 3049 3049 3050 3052 3050 3047 3045 3045 3044 3046 3048 3047 3046 3045 3040 3040 3039 3036 3030 3031 3028 3028 3025 3021 3019 3021 3018 3017 3014 3010 3008 3007 3006